Location: Moscow
(55.7500°N, 37.5830°E)
Time: 15:12:56
(UTC+03:00)

Vanguard 1 - Pass Details

Date: 05 December 2021
Orbit: 652 x 3830 km, 34.2° (Epoch: 25 January)

Event Time Altitude Azimuth Distance (km) Brightness Sun altitude
Exits shadow 04:23:14 32° 214° (SW) 4,809 13.1 -34.7°
Maximum altitude 04:25:57 33° 202° (SSW) 4,608 13.1 -34.3°
Drops below altitude 10° 04:39:34 10° 146° (SE) 5,143 14.0 -32.4°
Sets 04:43:22 0° 137° (SE) 5,743 14.4 -31.9°
